Weather History for Tallahassee, FL

Change the Weather History Date:

Monday, December 17, 2012

  Actual Average Record
Temperature  
Mean Temperature 71 °F 53 °F  
Max Temperature 80 °F 65 °F 83 °F (1971)
Min Temperature 61 °F 41 °F 20 °F (1968)
Degree Days  
Heating Degree Days 0    
Month to date heating degree days 68  
Since 1 July heating degree days 326  
Cooling Degree Days 6    
Month to date cooling degree days 18  
Year to date cooling degree days 2976  
Growing Degree Days 21 (Base 50)    
Moisture  
Dew Point 62 °F    
Average Humidity 74    
Maximum Humidity 93    
Minimum Humidity 54    
Precipitation  
Precipitation 0.49 in 0.12 in 3.40 in (1892)
Month to date precipitation 1.41 2.17  
Year to date precipitation 57.45 57.50  
Sea Level Pressure  
Sea Level Pressure 29.88 in    
Wind  
Wind Speed 7 mph (SW)    
Max Wind Speed 35 mph    
Max Gust Speed 43 mph    
Visibility 8 miles    
Events Rain    
T = Trace of Precipitation, MM = Missing Value Source: NWS Daily Summary

Daily Weather History Graph

Daily Weather History Graph

Search for Another Location

Airport:

Trip Planner

Search our weather history database for the weather conditions in past years. The results will help you decide how hot, cold, wet, or windy it might be!

Date:

Astronomy

Dec. 17, 2012 Rise Set
Actual Time 7:28 AM EST 5:39 PM EST
Civil Twilight 7:01 AM EST 6:06 PM EST
Nautical Twilight 6:31 AM EST 6:36 PM EST
Astronomical Twilight 6:02 AM EST 7:05 PM EST
Moon 10:53 AM EST (12/17) 10:41 PM EST (12/17)
Length of Visible Light 11h 04m
Length of Day
10h 11m
Waxing Crescent, 24% of the Moon is Illuminated
Dec 17
Waxing Crescent
Dec 20
First Quarter
Dec 28
Full
Jan 4
Last Quarter
Jan 11
New

Hourly Weather History & Observations

Time (EST) Temp. Dew Point Humidity Pressure Visibility Wind Dir Wind Speed Gust Speed Precip Events Conditions
12:11 AM 69.8 °F 66.2 °F 88% 29.94 in 10.0 mi SSW 6.9 mph - N/A   Overcast
12:53 AM 70.0 °F 66.0 °F 87% 29.93 in 10.0 mi SSW 5.8 mph - N/A   Overcast
1:21 AM 69.8 °F 64.4 °F 83% 29.93 in 2.5 mi West 8.1 mph - 0.08 in Rain Heavy Rain
1:26 AM 68.0 °F 64.4 °F 88% 29.92 in 1.8 mi West 8.1 mph - 0.13 in Rain Heavy Rain
1:32 AM 68.0 °F 64.4 °F 88% 29.92 in 2.0 mi West 9.2 mph - 0.18 in Rain Heavy Rain
1:37 AM 68.0 °F 64.4 °F 88% 29.92 in 3.0 mi West 11.5 mph - 0.20 in Rain Rain
1:41 AM 68.0 °F 64.4 °F 88% 29.92 in 3.0 mi WSW 6.9 mph - 0.22 in Rain Heavy Rain
1:53 AM 68.0 °F 64.9 °F 90% 29.93 in 3.0 mi WNW 5.8 mph - 0.25 in Rain Light Rain
2:07 AM 69.8 °F 64.4 °F 83% 29.93 in 10.0 mi West 8.1 mph - 0.00 in Rain Light Rain
2:21 AM 69.8 °F 64.4 °F 83% 29.92 in 7.0 mi West 9.2 mph - 0.06 in Rain Light Rain
2:48 AM 66.2 °F 62.6 °F 88% 29.92 in 10.0 mi Variable 6.9 mph - 0.06 in   Mostly Cloudy
2:49 AM 66.9 °F 62.1 °F 84% 29.92 in 10.0 mi NNE 6.9 mph - 0.06 in   Mostly Cloudy
3:19 AM 62.6 °F 59.0 °F 88% 29.93 in 10.0 mi North 6.9 mph - 0.00 in   Overcast
3:31 AM 62.6 °F 59.0 °F 88% 29.93 in 4.0 mi North 4.6 mph - 0.01 in Rain Heavy Rain
3:53 AM 62.1 °F 59.0 °F 90% 29.92 in 10.0 mi ENE 5.8 mph - 0.06 in Rain Light Rain
4:53 AM 62.1 °F 59.0 °F 90% 29.90 in 10.0 mi East 6.9 mph - 0.00 in   Overcast
5:53 AM 62.1 °F 59.0 °F 90% 29.88 in 10.0 mi East 5.8 mph - N/A   Overcast
6:53 AM 62.1 °F 59.0 °F 90% 29.89 in 10.0 mi East 4.6 mph - N/A   Overcast
7:53 AM 62.1 °F 60.1 °F 93% 29.89 in 10.0 mi SE 3.5 mph - N/A   Overcast
8:28 AM 62.6 °F 60.8 °F 94% 29.90 in 10.0 mi ESE 4.6 mph - N/A   Overcast
8:53 AM 64.0 °F 61.0 °F 90% 29.89 in 10.0 mi ESE 5.8 mph - N/A   Overcast
9:41 AM 66.2 °F 62.6 °F 88% 29.88 in 10.0 mi SSE 5.8 mph - N/A   Mostly Cloudy
9:50 AM 69.8 °F 64.4 °F 83% 29.89 in 10.0 mi South 8.1 mph - N/A   Scattered Clouds
9:53 AM 69.1 °F 64.0 °F 84% 29.88 in 10.0 mi South 6.9 mph - N/A   Scattered Clouds
10:53 AM 72.0 °F 66.0 °F 81% 29.87 in 10.0 mi South 8.1 mph - N/A   Overcast
11:07 AM 73.4 °F 66.2 °F 78% 29.86 in 10.0 mi South 11.5 mph - N/A   Overcast
11:53 AM 77.0 °F 66.0 °F 69% 29.85 in 10.0 mi SSW 10.4 mph - N/A   Mostly Cloudy
12:22 PM 78.8 °F 64.4 °F 61% 29.85 in 10.0 mi SW 16.1 mph 24.2 mph N/A   Scattered Clouds
12:53 PM 79.0 °F 63.0 °F 58% 29.85 in 10.0 mi SW 18.4 mph 23.0 mph N/A   Scattered Clouds
1:53 PM 79.0 °F 61.0 °F 54% 29.83 in 10.0 mi WSW 20.7 mph 29.9 mph N/A   Mostly Cloudy
2:53 PM 66.9 °F 60.1 °F 79% 29.87 in 8.0 mi West 24.2 mph 42.6 mph 0.00 in Rain Light Rain
3:05 PM 64.4 °F 59.0 °F 83% 29.87 in 2.0 mi West 20.7 mph 32.2 mph 0.02 in Rain Rain
3:53 PM 64.0 °F 59.0 °F 84% 29.84 in 2.0 mi SW 12.7 mph - 0.08 in Rain Light Rain
4:02 PM 64.4 °F 59.0 °F 83% 29.84 in 7.0 mi WSW 12.7 mph - 0.00 in Rain Rain
4:11 PM 64.4 °F 59.0 °F 83% 29.81 in 2.0 mi SSW 9.2 mph 18.4 mph 0.03 in Rain Rain
4:29 PM 64.4 °F 59.0 °F 83% 29.83 in 7.0 mi SW 6.9 mph - 0.04 in Rain Light Rain
4:53 PM 64.0 °F 60.1 °F 87% 29.84 in 7.0 mi WSW 3.5 mph - 0.04 in Rain Light Rain
7:53 PM 64.0 °F 60.1 °F 87% 29.83 in 10.0 mi Calm Calm - N/A   Scattered Clouds
8:53 PM 62.1 °F 60.1 °F 93% 29.83 in 10.0 mi South 3.5 mph - N/A   Partly Cloudy
9:53 PM 62.1 °F 59.0 °F 90% 29.84 in 10.0 mi Calm Calm - N/A   Clear
10:53 PM 62.1 °F 59.0 °F 90% 29.84 in 10.0 mi Calm Calm - N/A   Clear
11:53 PM 63.0 °F 59.0 °F 87% 29.84 in 10.0 mi SSW 5.8 mph - N/A   Clear